Retour au catalogue

STARLINK-38108

ActifCommunicationsVLEO
NORAD 100024·PAYLOAD·🇺🇸 United States

Lancé Jul 14, 2026 depuis Vandenberg Space Force Base

Loading…

Prochains Passages (prochaines 24 heures)

TLE

FraisSource: Space-Track

Époque: Sep 14, 2026, 22:26 UTC

1 A0024U 26160Z   26257.93540253 -.00310428  00000-0 -21098-2 0  9996
2 A0024  70.0010 210.7518 0007102 292.6103  67.4344 15.75471714 11117

Suivez STARLINK-38108 en temps réel avec AllMySat

Download on the App Store